Location: Newark
(42.8481°N, 0.4872°E)
Time: 00:16:48
(UTC+00:00)

Transit 2A - Pass Details

Date: 04 November 2020
Orbit: 595 x 963 km, 66.7° (Epoch: 03 December)

Event Time Altitude Azimuth Distance (km) Brightness Sun altitude
Rises 22:42:00 0° 197° (SSW) 3,611 - -60.0°
Reaches altitude 10° 22:44:34 10° 195° (SSW) 2,684 - -60.3°
Maximum altitude 22:50:49 62° 116° (ESE) 1,073 - -60.8°
Drops below altitude 10° 22:56:58 10° 37° (NE) 2,651 - -61.3°
Sets 22:59:29 0° 34° (NE) 3,564 - -61.4°
